Time,TemperatureF,DewpointF,PressureIn,WindDirection,WindDirectionDegrees,WindSpeedMPH,WindSpeedGustMPH,Humidity,HourlyPrecipIn,Conditions,Clouds,dailyrainin,SolarRadiationWatts/m^2,SoftwareType,DateUTC
2013-07-04 00:02:00,69.0,68.0,-100.00,NNW,337,1.0,3.0,98,0.00,,,0.00,0.000000,,2013-07-04 04:02:00,
2013-07-04 00:33:00,69.0,69.0,-100.00,North,4,1.0,3.0,100,0.00,,,0.00,0.000000,,2013-07-04 04:33:00,
2013-07-04 00:43:00,69.0,69.0,-100.00,North,4,1.0,3.0,100,0.00,,,0.00,0.000000,,2013-07-04 04:43:00,
2013-07-04 00:52:00,69.0,69.0,-100.00,North,4,1.0,3.0,100,0.00,,,0.00,0.000000,,2013-07-04 04:52:00,
2013-07-04 01:02:00,69.0,69.0,-100.00,North,4,1.0,3.0,100,0.00,,,0.00,0.000000,,2013-07-04 05:02:00,
2013-07-04 01:33:00,70.0,70.0,-100.00,East,83,1.0,4.0,100,0.00,,,0.00,0.000000,,2013-07-04 05:33:00,
2013-07-04 01:43:00,70.0,70.0,-100.00,East,83,1.0,4.0,100,0.00,,,0.00,0.000000,,2013-07-04 05:43:00,
2013-07-04 01:52:00,70.0,70.0,-100.00,East,83,1.0,4.0,100,0.00,,,0.00,0.000000,,2013-07-04 05:52:00,
2013-07-04 02:01:00,70.0,70.0,-100.00,East,83,1.0,4.0,100,0.00,,,0.00,0.000000,,2013-07-04 06:01:00,
2013-07-04 02:34:00,70.0,70.0,-100.00,NE,36,2.0,4.0,100,0.00,,,0.00,0.000000,,2013-07-04 06:34:00,
2013-07-04 02:43:00,70.0,70.0,-100.00,NE,36,2.0,4.0,100,0.00,,,0.00,0.000000,,2013-07-04 06:43:00,
2013-07-04 02:53:00,70.0,70.0,-100.00,NE,36,2.0,4.0,100,0.00,,,0.00,0.000000,,2013-07-04 06:53:00,
2013-07-04 03:02:00,70.0,70.0,-100.00,NE,36,2.0,4.0,100,0.00,,,0.00,0.000000,,2013-07-04 07:02:00,
2013-07-04 03:34:00,70.0,70.0,-100.00,SE,143,2.0,8.0,100,0.00,,,0.00,0.000000,,2013-07-04 07:34:00,
2013-07-04 03:43:00,70.0,70.0,-100.00,SE,143,2.0,8.0,100,0.00,,,0.00,0.000000,,2013-07-04 07:43:00,
2013-07-04 03:52:00,70.0,70.0,-100.00,SE,143,2.0,8.0,100,0.00,,,0.00,0.000000,,2013-07-04 07:52:00,
2013-07-04 04:02:00,70.0,70.0,-100.00,SE,143,2.0,8.0,100,0.00,,,0.00,0.000000,,2013-07-04 08:02:00,
2013-07-04 04:33:00,71.0,71.0,-100.00,ESE,122,2.0,6.0,100,0.00,,,0.00,0.000000,,2013-07-04 08:33:00,
2013-07-04 04:43:00,71.0,71.0,-100.00,ESE,122,2.0,6.0,100,0.00,,,0.00,0.000000,,2013-07-04 08:43:00,
2013-07-04 04:53:00,71.0,71.0,-100.00,ESE,122,2.0,6.0,100,0.00,,,0.00,0.000000,,2013-07-04 08:53:00,
2013-07-04 05:02:00,71.0,71.0,-100.00,ESE,122,2.0,6.0,100,0.00,,,0.00,0.000000,,2013-07-04 09:02:00,
2013-07-04 05:42:00,70.0,69.0,-100.00,SSE,164,2.0,5.0,98,0.00,,,0.00,0.000000,,2013-07-04 09:42:00,
2013-07-04 05:52:00,70.0,69.0,-100.00,SSE,164,2.0,5.0,98,0.00,,,0.00,0.000000,,2013-07-04 09:52:00,
2013-07-04 06:01:00,70.0,69.0,-100.00,SSE,164,2.0,5.0,98,0.00,,,0.00,0.000000,,2013-07-04 10:01:00,
2013-07-04 06:34:00,69.0,68.0,-100.00,NE,39,1.0,5.0,98,0.00,,,0.00,5.000000,,2013-07-04 10:34:00,
2013-07-04 06:43:00,69.0,68.0,-100.00,NE,39,1.0,5.0,98,0.00,,,0.00,5.000000,,2013-07-04 10:43:00,
2013-07-04 06:53:00,69.0,68.0,-100.00,NE,39,1.0,5.0,98,0.00,,,0.00,5.000000,,2013-07-04 10:53:00,
2013-07-04 07:02:00,69.0,68.0,-100.00,NE,39,1.0,5.0,98,0.00,,,0.00,5.000000,,2013-07-04 11:02:00,
2013-07-04 07:34:00,71.0,70.0,-100.00,SE,140,2.0,4.0,97,0.00,,,0.00,37.000000,,2013-07-04 11:34:00,
2013-07-04 07:43:00,71.0,70.0,-100.00,SE,140,2.0,4.0,97,0.00,,,0.00,37.000000,,2013-07-04 11:43:00,
2013-07-04 07:53:00,71.0,70.0,-100.00,SE,140,2.0,4.0,97,0.00,,,0.00,37.000000,,2013-07-04 11:53:00,
2013-07-04 08:02:00,71.0,70.0,-100.00,SE,140,2.0,4.0,97,0.00,,,0.00,37.000000,,2013-07-04 12:02:00,
2013-07-04 08:33:00,74.0,70.0,-100.00,SW,231,3.0,7.0,86,0.00,,,0.00,145.000000,,2013-07-04 12:33:00,
2013-07-04 08:43:00,74.0,70.0,-100.00,SW,231,3.0,7.0,86,0.00,,,0.00,145.000000,,2013-07-04 12:43:00,
2013-07-04 08:52:00,74.0,70.0,-100.00,SW,231,3.0,7.0,86,0.00,,,0.00,145.000000,,2013-07-04 12:52:00,
2013-07-04 09:02:00,74.0,70.0,-100.00,SW,231,3.0,7.0,86,0.00,,,0.00,145.000000,,2013-07-04 13:02:00,
2013-07-04 09:33:00,75.0,69.0,-100.00,SSW,208,3.0,9.0,83,0.00,,,0.00,245.000000,,2013-07-04 13:33:00,
2013-07-04 09:43:00,75.0,69.0,-100.00,SSW,208,3.0,9.0,83,0.00,,,0.00,245.000000,,2013-07-04 13:43:00,
2013-07-04 09:53:00,75.0,69.0,-100.00,SSW,208,3.0,9.0,83,0.00,,,0.00,245.000000,,2013-07-04 13:53:00,
2013-07-04 10:02:00,75.0,69.0,-100.00,SSW,208,3.0,9.0,83,0.00,,,0.00,245.000000,,2013-07-04 14:02:00,
2013-07-04 10:33:00,76.0,70.0,-100.00,WSW,246,3.0,7.0,82,0.00,,,0.00,226.000000,,2013-07-04 14:33:00,
2013-07-04 10:43:00,76.0,70.0,-100.00,WSW,246,3.0,7.0,82,0.00,,,0.00,226.000000,,2013-07-04 14:43:00,
2013-07-04 10:53:00,76.0,70.0,-100.00,WSW,246,3.0,7.0,82,0.00,,,0.00,226.000000,,2013-07-04 14:53:00,
2013-07-04 11:02:00,76.0,70.0,-100.00,WSW,246,3.0,7.0,82,0.00,,,0.00,226.000000,,2013-07-04 15:02:00,
2013-07-04 11:33:00,80.0,71.0,-100.00,SW,214,3.0,9.0,74,0.00,,,0.00,460.000000,,2013-07-04 15:33:00,
2013-07-04 11:43:00,80.0,71.0,-100.00,SW,214,3.0,9.0,74,0.00,,,0.00,460.000000,,2013-07-04 15:43:00,
2013-07-04 11:53:00,80.0,71.0,-100.00,SW,214,3.0,9.0,74,0.00,,,0.00,460.000000,,2013-07-04 15:53:00,
2013-07-04 12:02:00,80.0,71.0,-100.00,SW,214,3.0,9.0,74,0.00,,,0.00,460.000000,,2013-07-04 16:02:00,
2013-07-04 12:33:00,82.0,69.0,-100.00,South,191,4.0,9.0,64,0.00,,,0.00,627.000000,,2013-07-04 16:33:00,
2013-07-04 12:43:00,82.0,69.0,-100.00,South,191,4.0,9.0,64,0.00,,,0.00,627.000000,,2013-07-04 16:43:00,
2013-07-04 12:52:00,82.0,69.0,-100.00,South,191,4.0,9.0,64,0.00,,,0.00,627.000000,,2013-07-04 16:52:00,
2013-07-04 13:02:00,82.0,69.0,-100.00,South,191,4.0,9.0,64,0.00,,,0.00,627.000000,,2013-07-04 17:02:00,
2013-07-04 13:34:00,85.0,70.0,-100.00,SSW,202,3.0,9.0,62,0.00,,,0.00,770.000000,,2013-07-04 17:34:00,
2013-07-04 13:43:00,85.0,70.0,-100.00,SSW,202,3.0,9.0,62,0.00,,,0.00,770.000000,,2013-07-04 17:43:00,
2013-07-04 13:53:00,85.0,70.0,-100.00,SSW,202,3.0,9.0,62,0.00,,,0.00,770.000000,,2013-07-04 17:53:00,
2013-07-04 14:01:00,85.0,70.0,-100.00,SSW,202,3.0,9.0,62,0.00,,,0.00,770.000000,,2013-07-04 18:01:00,
2013-07-04 14:33:00,82.0,69.0,-100.00,SE,142,3.0,10.0,64,0.00,,,0.00,602.000000,,2013-07-04 18:33:00,
2013-07-04 14:43:00,82.0,69.0,-100.00,SE,142,3.0,10.0,64,0.00,,,0.00,602.000000,,2013-07-04 18:43:00,
2013-07-04 14:52:00,82.0,69.0,-100.00,SE,142,3.0,10.0,64,0.00,,,0.00,602.000000,,2013-07-04 18:52:00,
2013-07-04 15:02:00,82.0,69.0,-100.00,SE,142,3.0,10.0,64,0.00,,,0.00,602.000000,,2013-07-04 19:02:00,
2013-07-04 15:34:00,81.0,68.0,-100.00,SSW,200,3.0,9.0,65,0.00,,,-99.99,448.000000,,2013-07-04 19:34:00,
2013-07-04 15:43:00,81.0,68.0,-100.00,SSW,200,3.0,9.0,65,0.00,,,-99.99,448.000000,,2013-07-04 19:43:00,
2013-07-04 15:53:00,81.0,68.0,-100.00,SSW,200,3.0,9.0,65,0.00,,,-99.99,448.000000,,2013-07-04 19:53:00,
2013-07-04 16:02:00,81.0,68.0,-100.00,SSW,200,3.0,9.0,65,0.00,,,-99.99,448.000000,,2013-07-04 20:02:00,
2013-07-04 16:34:00,84.0,70.0,-100.00,SSE,162,4.0,9.0,62,0.00,,,0.00,430.000000,,2013-07-04 20:34:00,
2013-07-04 16:42:00,84.0,70.0,-100.00,SSE,162,4.0,9.0,62,0.00,,,0.00,430.000000,,2013-07-04 20:42:00,
2013-07-04 16:53:00,84.0,70.0,-100.00,SSE,162,4.0,9.0,62,0.00,,,0.00,430.000000,,2013-07-04 20:53:00,
2013-07-04 17:01:00,84.0,70.0,-100.00,SSE,162,4.0,9.0,62,0.00,,,0.00,430.000000,,2013-07-04 21:01:00,
2013-07-04 17:32:00,86.0,68.0,-100.00,South,182,4.0,10.0,56,0.00,,,0.00,606.000000,,2013-07-04 21:32:00,
2013-07-04 17:43:00,86.0,68.0,-100.00,South,182,4.0,10.0,56,0.00,,,0.00,606.000000,,2013-07-04 21:43:00,
2013-07-04 17:53:00,86.0,68.0,-100.00,South,182,4.0,10.0,56,0.00,,,0.00,606.000000,,2013-07-04 21:53:00,
2013-07-04 18:02:00,86.0,68.0,-100.00,South,182,4.0,10.0,56,0.00,,,0.00,606.000000,,2013-07-04 22:02:00,
2013-07-04 18:33:00,84.0,71.0,-100.00,ESE,120,3.0,10.0,65,0.00,,,0.00,344.000000,,2013-07-04 22:33:00,
2013-07-04 18:43:00,84.0,71.0,-100.00,ESE,120,3.0,10.0,65,0.00,,,0.00,344.000000,,2013-07-04 22:43:00,
2013-07-04 18:52:00,84.0,71.0,-100.00,ESE,120,3.0,10.0,65,0.00,,,0.00,344.000000,,2013-07-04 22:52:00,
2013-07-04 19:02:00,84.0,71.0,-100.00,ESE,120,3.0,10.0,65,0.00,,,0.00,344.000000,,2013-07-04 23:02:00,
2013-07-04 19:33:00,80.0,68.0,-100.00,SSE,147,3.0,8.0,67,0.00,,,0.00,244.000000,,2013-07-04 23:33:00,
2013-07-04 19:43:00,80.0,68.0,-100.00,SSE,147,3.0,8.0,67,0.00,,,0.00,244.000000,,2013-07-04 23:43:00,
2013-07-04 19:52:00,80.0,68.0,-100.00,SSE,147,3.0,8.0,67,0.00,,,0.00,244.000000,,2013-07-04 23:52:00,
2013-07-04 20:01:00,80.0,68.0,-100.00,SSE,147,3.0,8.0,67,0.00,,,0.00,244.000000,,2013-07-05 00:01:00,
2013-07-04 20:32:00,76.0,69.0,-100.00,East,80,2.0,11.0,78,0.00,,,0.00,38.000000,,2013-07-05 00:32:00,
2013-07-04 20:43:00,76.0,69.0,-100.00,East,80,2.0,11.0,78,0.00,,,0.00,38.000000,,2013-07-05 00:43:00,
2013-07-04 20:52:00,76.0,69.0,-100.00,East,80,2.0,11.0,78,0.00,,,0.00,38.000000,,2013-07-05 00:52:00,
2013-07-04 21:01:00,76.0,69.0,-100.00,East,80,2.0,11.0,78,0.00,,,0.00,38.000000,,2013-07-05 01:01:00,
2013-07-04 21:32:00,74.0,68.0,-100.00,SE,129,2.0,7.0,83,0.00,,,0.00,8.000000,,2013-07-05 01:32:00,
2013-07-04 21:42:00,74.0,68.0,-100.00,SE,129,2.0,7.0,83,0.00,,,0.00,8.000000,,2013-07-05 01:42:00,
2013-07-04 21:52:00,74.0,68.0,-100.00,SE,129,2.0,7.0,83,0.00,,,0.00,8.000000,,2013-07-05 01:52:00,
2013-07-04 22:02:00,74.0,68.0,-100.00,SE,129,2.0,7.0,83,0.00,,,0.00,8.000000,,2013-07-05 02:02:00,
2013-07-04 22:32:00,74.0,68.0,-100.00,SW,236,2.0,6.0,83,0.00,,,0.00,0.000000,,2013-07-05 02:32:00,
2013-07-04 22:43:00,74.0,68.0,-100.00,SW,236,2.0,6.0,83,0.00,,,0.00,0.000000,,2013-07-05 02:43:00,
2013-07-04 22:53:00,74.0,68.0,-100.00,SW,236,2.0,6.0,83,0.00,,,0.00,0.000000,,2013-07-05 02:53:00,
2013-07-04 23:02:00,74.0,68.0,-100.00,SW,236,2.0,6.0,83,0.00,,,0.00,0.000000,,2013-07-05 03:02:00,
2013-07-04 23:33:00,73.0,69.0,-100.00,SSE,151,2.0,7.0,88,0.00,,,0.00,0.000000,,2013-07-05 03:33:00,
2013-07-04 23:42:00,73.0,69.0,-100.00,SSE,151,2.0,7.0,88,0.00,,,0.00,0.000000,,2013-07-05 03:42:00,
2013-07-04 23:52:00,73.0,69.0,-100.00,SSE,151,2.0,7.0,88,0.00,,,0.00,0.000000,,2013-07-05 03:52:00,